FENGYUN 1C DEB, 36260

Orbit data source: Space-Track

FENGYUN 1C DEB, 36260 is space debris in SSO originally from a launch on Mon, 10 May 1999 UTC launched from the Taiyaun Space Center, China (TSC). Fengyun 1C debris stems from the Chinese weather satellite Fengyun-1C, which was intentionally destroyed by a Chinese anti-satellite missile in 2007. This event dramatically increased the amount of space debris, with thousands of trackable fragments posing hazards to satellites and human spaceflight. The Fengyun 1C debris cloud has become a focal point in discussions about space sustainability and the need for international regulations to prevent the creation of new debris.

Loading next visibility...
Identifier
36260, 1999-025DWM
Orbit
SSO
Country
Flag of CNCN / PRC
Related business
Manufacturer
Unknown
Mission
Spacecraft
Bus & Motor
Unknown
Mass
Unknown
Launch date (UTC)
1999-05-10 (27 years ago)
Launch vehicle
Unknown
Launch site
Taiyaun Space Center, China (TSC)
Object type
Payload
Rocket body
Debris
Shape & HBR
Unknown shape, 0.1 m
Radar Cross Section
Small (<0.1 m²)

Expand to show TLE details & history
Last TLE update: 3 days ago

TLE from 3 days ago
0 FENGYUN 1C DEB
1 36260U 99025DWM 26068.45491019  .00000378  00000-0  21510-3 0  9997
2 36260  98.6655  73.1661 0016098   6.8965 353.2427 14.15445547890351
Epoch: 2026-03-09T10:55Z
TLE epoch observation values (Epoch: 2026-03-09T10:55:04.240Z)
Latitude
-0.00009°
Longitude
102.25083°
Altitude
832.164 km
Speed
7.443 km/s
True Right ascension
04h 52m 39s
True Declination
0° 00' 00"
Sunlit
Object was in daylight at epoch
Visualization orbit readout
Latitude
Unknown
Longitude
Unknown
Altitude
Unknown
Speed
Unknown
Apparent Right ascension
Unknown
Apparent Declination
Unknown
Sunlit
N/A
Visualization observer readout
Local Sidereal Time
22:43:53
Azimuth
Unknown
Elevation
Unknown
Doppler factor
Unknown
Orbital elements
Apogee altitude
849.576 km
Perigee altitude
826.343 km
Semi-major axis
7,216.096 km
Eccentricity
0.00161
Inclination
98.6655°
RAAN
73.1661°
Arg. of periapsis
6.8965°
True anomaly
353.22095°
Mean anomaly
353.2427°
Eccentric anomaly
353.23183°
Mean motion
3.5407 °/min
Orbital period
101.67 mins
BSTAR
0.0002151
Loading maneuver chart data...
Computing Atmospheric mass density...

Documentation

Showing up to 5 results
|